www.pogodaiklimat.ru
ПОГОДА в Ныробе

Архив погоды в Ныробе (Пермский край, Россия)

Время
(UTC), дата
03 27.11
06 27.11
09 27.11
12 27.11
15 27.11
18 27.11
21 27.11
00 28.11
03 28.11
06 28.11
09 28.11
12 28.11
15 28.11
18 28.11
21 28.11
00 29.11
03 29.11
06 29.11
09 29.11
12 29.11
15 29.11
18 29.11
21 29.11
00 30.11
03 30.11
06 30.11
09 30.11
12 30.11
15 30.11
18 30.11
21 30.11
00 1.12
03 1.12
06 1.12
09 1.12
12 1.12
15 1.12
18 1.12
21 1.12
00 2.12
03 2.12
06 2.12
09 2.12
12 2.12
15 2.12
18 2.12
21 2.12
00 3.12
03 3.12
06 3.12
09 3.12
12 3.12
15 3.12
18 3.12
21 3.12
Ветер
(напр.,м/с)
Видим. Явления Облачность Т
(С)
Тd
(С)
f
(%)
Тe
(С)
Тes
(С)
Комфортность P
(гПа)
Po
(гПа)
Тmin
(С)
Tmax
(С)
R
(мм)
R24
(мм)
S
(см)
ЮЗ 5
{10}
20 км в посл. час снег [диам. гололёда 0 мм] 10/4 600 м
[Cb cap Ac und]
0.0 -0.8 94 -6 -6 1004.6 985.5 -5.0 4 42
ЮЗ 5 10 км слаб. ливневой снег [диам. гололёда 0 мм] 10/9 300 м
[Cb cap Ac und]
+0.4 -0.7 92 -6 -6 1006.7 987.5
ЮЗ 4 1000 м сильн. снег {ливн. снег} 10/10 300 м
[Frnb Ns]
+0.4 -0.4 94 -5 -5 1008.2 989.0
ЮЗ 4
{10}
10 км слаб. ливневой снег 10/9 300 м
[Cb cap Ac und]
+0.7 -0.4 92 -5 -5 1010.4 991.3
ЮЗ 4 20 км слаб. ливневой снег 10/8 300 м
[Cb cap Ac und]
+0.9 +0.1 94 -5 -5 1012.2 993.0 +0.8 2
ЮЗ 4 20 км слаб. ливневой снег 10/8 600 м
[Cb cap Ac und]
+0.7 -0.1 94 -5 -5 1014.5 995.3
Ю 3 2000 м снег {ливн. снег} 10/10 300 м
[Ns]
+0.2 -0.1 98 -5 -5 1015.8 996.5
Ю 4 2000 м снег {ливн. снег} 10/10 300 м
[Ns]
-0.6 -0.7 99 -6 -6 1016.0 996.7
Ю 3 1000 м сильн. снег 10/10 300 м
[Ns]
-1.5 -2.0 96 -7 -7 1015.0 995.6 -1.5 2 42
Ю 4
{10}
4000 м снежные зёрна [диам. гололёда 0 мм] 10/10 300 м
[St]
-1.3 -2.4 92 -7 -7 1014.9 995.5
Ю 5 10 км {снег} [диам. гололёда 1 мм] 10/10 300 м
[St]
-1.0 -2.3 91 -7 -7 1012.9 993.6
Ю 5
{10}
1000 м ливневой снег [диам. гололёда 0 мм] 10/10 600 м
[Cb cap]
-2.7 -3.7 93 -10 -10 1011.1 991.7
Ю 5
{11}
2000 м снег {ливн. снег} 10/10 300 м
[Ns]
-4.2 -5.4 91 -11 -11 1010.9 991.4 -1.1 4
Ю 4
{11}
4000 м слаб. снег {ливн. снег} 10/10 300 м
[Ns]
-4.4 -5.3 93 -11 -11 1010.5 991.0
Ю 4 4000 м слаб. снег 10/10 300 м
[Ns]
-4.0 -4.8 94 -10 -10 1010.0 990.5
Ю 4 4000 м слаб. снег 10/10 300 м
[Ns]
-3.6 -4.7 92 -10 -10 1009.4 989.9
Ю 4 20 км {снег} 10/10 300 м
[Sc]
-2.5 -3.8 91 -9 -9 1009.4 990.0 -4.4 3 45
ЮЗ 4 4000 м снежные зёрна 10/10 300 м
[St]
-1.1 -1.5 97 -7 -7 1010.2 990.9
Ю 5 4000 м слаб. ливневой снег 10/9 300 м
[Cb cap Ac und]
-0.1 -0.7 96 -6 -6 1011.2 992.0
Ю 4 10 км слаб. крупа {ливн. снег, снег} 10/9 600 м
[Cb cap Ac und]
+0.3 -0.3 96 -5 -5 1012.1 992.8
ЮЗ 3 20 км {ливн. снег} 10/8 600 м
[Cb cap Ac und]
+0.5 -0.3 94 -4 -4 1012.7 993.5 +0.4 0.6
ЮЗ 1 20 км в посл. час ливневой снег 10/8 600 м
[Cb cap Ac und]
+0.1 -0.5 96 -2 -2 1013.5 994.2
С 2 4000 м слаб. ливневой снег 10/9 600 м
[Cb cap Ac und]
-0.7 -1.4 95 -5 -5 1013.8 994.5
СВ 2 10 км слаб. снег {ливн. снег} 10/5 600 м
[Sc As op]
-2.9 -3.6 95 -7 -7 1012.4 992.9
С 3 4000 м слаб. снег 10/10 300 м
[Ns]
-3.8 -4.6 94 -9 -9 1010.0 990.5 -3.7 2 46
В 4 1000 м сильн. снег 10/10 300 м
[Ns]
-1.7 -2.2 96 -8 -8 1006.6 987.4 -3.9
ЮВ 3 2000 м снег 10/10 300 м
[Ns]
+0.2 -0.1 98 -5 -5 1002.6 983.5
Ю 5-10
{10}
1000 м ливневой снег 10/9 600 м
[Cb cap Ac und]
+0.4 +0.1 98 -6 -6 998.2 979.2
ЮВ 6-12
{12}
2000 м снег {ливн. снег} 10/10 300 м
[Ns]
+1.0 +0.6 97 -6 -6 992.3 973.5 +1.0 9
ЮВ 6
{12}
2000 м снег {ливн. снег} 10/10 300 м
[Ns]
+1.3 +0.8 96 -5 -5 988.0 969.3
Ю 5-10
{13}
2000 м снег 10/10 300 м
[Ns]
+0.4 +0.1 98 -6 -6 987.9 969.1
Ю 4
{11}
10 км слаб. морось {снег} 10/10 300 м
[St]
+1.2 +0.7 96 -4 -4 989.4 970.7
Ю 5
{12}
20 км в посл. час ливневой дождь {снег} 10/8 600 м
[Cb cap Ac und]
+1.7 +1.0 95 -4 -4 990.3 971.6 +0.2 7 47
Ю 6-10
{11}
20 км {ливн. дождь, снег} 10/8 600 м
[Cb cap Ac und]
+2.1 +0.6 90 -4 -4 991.3 972.5
Ю 4
{13}
20 км 10/8 300 м
[Cb cap Ac und]
+2.2 -0.2 84 -3 -3 991.5 972.7
Ю 4 20 км 10/8 300 м
[Frnb Ac und]
+1.9 +0.1 88 -3 -3 991.9 973.1
Ю 3 20 км 10/8 300 м
[Sc Ac und]
+2.0 +0.5 90 -2 -2 991.3 972.5 +2.4
ЮВ 1 20 км 10/8 300 м
[Sc Ac und]
+1.7 +0.4 91 -0 -0 988.6 969.9
штиль 0 2000 м снег 10/10 300 м
[Ns]
+0.4 +0.1 98 -1 -1 986.8 968.0
штиль 0 1000 м снег 10/10 300 м
[Ns]
+0.1 +0.1 100 -1 -1 985.7 966.9
штиль 0 1000 м сильн. снег [диам. отлож. мокр. снега 12 мм] 10/10 300 м
[Ns]
+0.2 +0.2 100 -1 -1 986.5 967.7 +0.1 7 46
З 2 20 км в посл. час снег [диам. отлож. мокр. снега 19 мм] 10/6 300 м
[Frnb As op]
-0.3 -0.9 96 -4 -4 988.8 969.9 -0.3
штиль 0 20 км [диам. отлож. мокр. снега 19 мм] 10/8 300 м
[Frnb As op]
-1.1 -2.3 92 -2 -2 990.6 971.7
ЮЗ 2 20 км {ливн. снег} 10/6 600 м
[Cb cap As op]
-2.3 -3.4 92 -6 -6 992.1 973.0
ЮЗ 3 20 км в посл. час ливневой снег 9/5 600 м
[Cb cap Ac trans]
-3.0 -4.6 89 -8 -8 993.2 974.1 +0.1 1
ЮЗ 2 20 км в посл. час ливневой снег 10/6 600 м
[Cb cap Ac und]
-4.4 -6.3 87 -9 -9 994.0 974.8
ЮЗ 3 10 км слаб. снег 10/10 600 м
[Sc]
-4.6 -6.5 87 -10 -10 994.4 975.2
ЮЗ 3 4000 м слаб. снег 10/10 300 м
[Ns]
-4.7 -6.0 91 -10 -10 994.4 975.2
ЮЗ 2 10 км слаб. ливневой снег 10/6 600 м
[Cb cap As op]
-5.6 -7.3 88 -10 -10 995.7 976.4 -5.6 0.6 46
ЮЗ 3 4000 м слаб. ливневой снег 10/8 600 м
[Cb cap As trans]
-5.6 -7.3 88 -11 -11 996.3 977.0
ЮЗ 4
{10}
10 км слаб. ливневой снег 10/5 600 м
[Cb cap As trans]
-6.8 -9.1 84 -13 -13 998.5 979.0
ЮЗ 2
{10}
10 км слаб. ливневой снег 10/5 600 м
[Cb cap As trans]
-7.9 -10.0 85 -12 -12 1000.4 980.8
СЗ 2 10 км слаб. ливневой снег 10/8 600 м
[Cb cap Ac und]
-8.0 -9.8 87 -12 -12 1003.1 983.2 -5.6 1
З 3 4000 м слаб. снег {ливн. снег} 10/10 600 м
[Ns]
-8.6 -11.4 80 -14 -14 1006.0 986.3
ЮЗ 2 4000 м слаб. снег 10/10 600 м
[Ns]
-8.8 -11.2 83 -13 -13 1008.7 988.9
Местоположение метеостанции Ныроб (Пермский край, Россия): широта 60.73 долгота 56.72 высота над уровнем моря 154 м.
В архиве по умолчанию представлена погода в Ныробе за последнюю неделю. Архивные данные за месяц целиком и за предыдущие месяцы, начиная с января 2011 года, Вы можете получить, выбрав интересующий диапазон дат из раскрывающегося списка и нажав кнопку "Найти!".
*Определитесь, кто Вы:
Внимание! Время в таблицах - всемирное. Для получения местного времени необходимо прибавить поправку, которая равна 5 ч.
Смотрите также архив погоды в соседних городах и на ближайших метеорологических станциях:
Партнеры нашего сайта:      
Пояснения к столбцам:
  • Ветер - указаны скорость ветра в м/с - средняя за 10 мин, порывы в срок и между сроками (в фигурных скобках) и направление, откуда дует ветер: С - северный,
  • СВ - северо-восточный, В - восточный, ЮВ - юго-восточный, Ю - южный, ЮЗ - юго-западный, З - западный, СЗ - северо-западный.
  • Видимость - горизонтальная дальность видимости в метрах или километрах. При видимости от 1 до 10 км при отсутствии осадков обычно наблюдается дымка, при ухудшении видимости до 1 км и менее - туман. В сухую погоду видимость может ухудшаться дымом, пылью или мглою.
  • Явления - указаны атмосферные явления, наблюдавшиеся в срок или в последний час перед сроком; фигурными скобками обозначены явления, наблюдавшиеся между сроками (за 1-3 часа до срока); квадратными скобками обозначены град или гололедные отложения с указанием их диаметра в мм.
  • Облачность - указаны через наклонную черту общая и нижняя облачность в баллах и высота нижней границы облаков в метрах; квадратными скобками обозначены формы облаков: Ci - перистые, Cs - перисто-слоистые, Cc - перисто-кучевые, Ac - высококучевые, As - высокослоистые, Sc - слоисто-кучевые, Ns - слоисто-дождевые, Cu - кучевые, Cb - кучево-дождевые. Подробнее классификацию облаков см. в Атласе облаков (PDF).
  • T - Температура воздуха - температура, измеренная на высоте 2 м над землей.
  • Td - Температура точки росы - температура, при понижении до которой содержащийся в воздухе водяной пар достигнет насыщения.
  • f - Относительная влажность воздуха - влажноcть воздуха, измеренная на высоте 2 м над землей.
  • Te - Эффективная температура - температура, которую ощущает одетый по сезону человек в тени. Характеристика душности погоды. При расчете учитывается влияние влажности воздуха и скорости ветра на теплоощущения человека.
  • Tes - Эффективная температура на солнце - температура, которую ощущает человек, с поправкой на солнечный нагрев. Характеристика знойности погоды. Зависит от высоты солнца над горизонтом, облачности и скорости ветра. Ночью, в пасмурную погоду, а также при ветре 12 м/с и более поправка равна нулю.
  • P - Атмосферное давление - приведенное к уровню моря атмосферное давление.
  • Po - Атмосферное давление - измеренное на уровне метеостанции атмосферное давление.
  • Tmin - Минимальная температура - минимум температуры воздуха на высоте 2 м над землей.
  • Tmax - Максимальная температура - максимум температуры воздуха на высоте 2 м над землей.
  • R - Количество осадков - Количество выпавших осадков за период времени, мм. При наведении курсора мыши на число - период времени, за который выпало указанное количество осадков.
  • R24 - Количество осадков - Количество выпавших осадков за 24 часа, мм.
  • S - Снежный покров - Высота снежного покрова, см. При наведении курсора мыши на число - состояние снежного покрова и степень покрытия местности в баллах.